{"data":{"norad_id":59268,"epoch":"2026-09-21T13:19:17.792256Z","epoch_age_seconds":71104,"freshness":"FRESH","line1":"1 59268U 24050Q   26264.55506704  .00015986  00000+0  48312-3 0  9992","line2":"2 59268  53.1624 348.5794 0001012  72.5375 287.5738 15.34408557140575","mean_motion":15.34408557,"eccentricity":0.0001012,"inclination_deg":53.1624,"raan_deg":348.5794,"arg_perigee_deg":72.5375,"mean_anomaly_deg":287.5738,"bstar":0.00048312,"rev_number":14057,"period_min":93.84723471664,"perigee_km":461.98551665951,"apogee_km":463.37009757648,"semimajor_km":6840.814807118,"source":"CELESTRAK","updated_at":"2026-09-22T09:00:48.873276Z"}}